Weather History for Clermont County, Batavia, OH

Change the Weather History Date:

Tuesday, September 2, 2014

  Actual Average (KLUK) Record (KLUK)
Temperature  
Mean Temperature 74 °F -  
Max Temperature 80 °F 83 °F 98 °F (2011)
Min Temperature 68 °F 63 °F 33 °F (1996)
Cooling Degree Days 9    
Growing Degree Days 24 (Base 50)    
Moisture  
Dew Point 70 °F    
Average Humidity 88    
Maximum Humidity 100    
Minimum Humidity 65    
Precipitation  
Precipitation 0.52 in - - ()
Sea Level Pressure  
Sea Level Pressure 29.97 in    
Wind  
Wind Speed 5 mph (SW)    
Max Wind Speed 17 mph    
Max Gust Speed 20 mph    
Visibility 9 miles    
Events Fog , Rain    
Averages and records for this station are not official NWS values.
T = Trace of Precipitation, MM = Missing Value Source: NWS Daily Summary

Daily Weather History Graph

Daily Weather History Graph

Search for Another Location

Airport:

Trip Planner

Search our weather history database for the weather conditions in past years. The results will help you decide how hot, cold, wet, or windy it might be!

Date:

Astronomy

Sep. 02, 2014 Rise Set
Actual Time 7:06 AM EDT 8:05 PM EDT
Civil Twilight 6:39 AM EDT 8:33 PM EDT
Nautical Twilight 6:06 AM EDT 9:05 PM EDT
Astronomical Twilight 5:32 AM EDT 9:39 PM EDT
Moon 2:46 PM EDT (9/2) 12:10 AM EDT (9/2)
Length of Visible Light 13h 53m
Length of Day
12h 59m
First Quarter, 52% of the Moon is Illuminated
Sep 2
First Quarter
Sep 8
Full
Sep 15
Last Quarter
Sep 24
New
Oct 1
First Quarter

Hourly Weather History & Observations

Time (EDT) Temp. Heat Index Dew Point Humidity Pressure Visibility Wind Dir Wind Speed Gust Speed Precip Events Conditions
12:15 AM 77.0 °F - 71.6 °F 83% 29.98 in 10.0 mi SW 8.1 mph - N/A   Clear
12:35 AM 77.0 °F - 71.6 °F 83% 29.98 in 10.0 mi SW 9.2 mph - N/A   Clear
12:55 AM 77.0 °F - 71.6 °F 83% 29.98 in 10.0 mi SW 6.9 mph - N/A   Clear
1:15 AM 77.0 °F - 71.6 °F 83% 29.98 in 10.0 mi SW 3.5 mph - N/A   Clear
1:35 AM 77.0 °F - 71.6 °F 83% 29.98 in 10.0 mi SW 3.5 mph - N/A   Clear
1:55 AM 75.2 °F - 71.6 °F 89% 29.97 in 10.0 mi SSW 3.5 mph - N/A   Clear
2:15 AM 75.2 °F - 71.6 °F 89% 29.97 in 10.0 mi SW 4.6 mph - N/A   Clear
2:35 AM 75.2 °F - 71.6 °F 89% 29.98 in 10.0 mi SW 5.8 mph - N/A   Scattered Clouds
2:55 AM 75.2 °F - 71.6 °F 89% 29.98 in 10.0 mi SW 3.5 mph - N/A   Scattered Clouds
3:15 AM 75.2 °F - 71.6 °F 89% 29.97 in 10.0 mi Calm Calm - N/A   Mostly Cloudy
3:35 AM 75.2 °F - 71.6 °F 89% 29.97 in 10.0 mi Calm Calm - N/A   Scattered Clouds
3:55 AM 75.2 °F - 71.6 °F 89% 29.97 in 10.0 mi Calm Calm - N/A   Mostly Cloudy
4:15 AM 75.2 °F - 71.6 °F 89% 29.97 in 10.0 mi Calm Calm - N/A   Overcast
4:36 AM 75.2 °F - 71.6 °F 89% 29.97 in 10.0 mi SW 3.5 mph - N/A   Overcast
4:55 AM 75.2 °F - 71.6 °F 89% 29.96 in 10.0 mi SW 3.5 mph - N/A   Mostly Cloudy
5:15 AM 75.2 °F - 71.6 °F 89% 29.97 in 10.0 mi SSW 3.5 mph - N/A   Overcast
5:36 AM 75.2 °F - 71.6 °F 89% 29.98 in 10.0 mi SW 5.8 mph - N/A   Mostly Cloudy
5:55 AM 77.0 °F - 71.6 °F 83% 29.97 in 10.0 mi SW 5.8 mph - N/A   Scattered Clouds
6:15 AM 75.2 °F - 71.6 °F 89% 29.97 in 10.0 mi SW 5.8 mph - N/A   Scattered Clouds
6:36 AM 77.0 °F - 71.6 °F 83% 29.97 in 10.0 mi SSW 5.8 mph - N/A   Overcast
6:55 AM 77.0 °F - 71.6 °F 83% 29.98 in 10.0 mi WSW 6.9 mph - N/A   Mostly Cloudy
7:15 AM 73.4 °F - 64.4 °F 73% 30.01 in 10.0 mi North 13.8 mph 17.3 mph N/A   Mostly Cloudy
7:36 AM 69.8 °F - 66.2 °F 88% 30.01 in 7.0 mi NNE 6.9 mph 18.4 mph 0.04 in Rain Rain
7:55 AM 68.0 °F - 66.2 °F 94% 30.01 in 2.5 mi Calm Calm - 0.27 in Rain Rain
8:15 AM 68.0 °F - 68.0 °F 100% 30.01 in 7.0 mi Calm Calm - 0.03 in Rain Heavy Rain
8:36 AM 68.0 °F - 68.0 °F 100% 30.03 in 5.0 mi Calm Calm - 0.11 in Rain Heavy Rain
8:55 AM 68.0 °F - 68.0 °F 100% 29.98 in 7.0 mi SE 4.6 mph - 0.16 in Rain Rain
9:15 AM 68.0 °F - 68.0 °F 100% 29.98 in 10.0 mi SSE 6.9 mph - 0.01 in   Mostly Cloudy
9:36 AM 68.0 °F - 68.0 °F 100% 29.97 in 10.0 mi SSE 5.8 mph - 0.01 in   Mostly Cloudy
9:55 AM 69.8 °F - 69.8 °F 100% 29.97 in 10.0 mi South 5.8 mph - 0.01 in   Mostly Cloudy
10:15 AM 69.8 °F - 68.0 °F 94% 29.98 in 10.0 mi South 4.6 mph - N/A   Overcast
10:36 AM 69.8 °F - 69.8 °F 100% 29.98 in 10.0 mi SSW 5.8 mph - N/A   Overcast
10:55 AM 71.6 °F - 69.8 °F 94% 29.98 in 10.0 mi SSW 9.2 mph 16.1 mph N/A Rain Light Rain
11:16 AM 71.6 °F - 69.8 °F 94% 29.95 in 10.0 mi SSW 6.9 mph 19.6 mph N/A Rain Light Rain
11:35 AM 71.6 °F - 69.8 °F 94% 29.95 in 10.0 mi SW 8.1 mph - N/A   Scattered Clouds
11:55 AM 75.2 °F - 69.8 °F 83% 29.97 in 10.0 mi WSW 10.4 mph - N/A   Clear
12:16 PM 77.0 °F - 69.8 °F 78% 29.98 in 10.0 mi WSW 17.3 mph - N/A   Scattered Clouds
12:35 PM 77.0 °F - 69.8 °F 78% 29.98 in 10.0 mi WSW 13.8 mph 19.6 mph N/A   Mostly Cloudy
12:55 PM 78.8 °F - 69.8 °F 74% 29.97 in 10.0 mi WSW 12.7 mph 17.3 mph N/A   Mostly Cloudy
1:16 PM 78.8 °F - 68.0 °F 69% 29.97 in 10.0 mi WSW 11.5 mph - N/A   Scattered Clouds
1:35 PM 80.6 °F 83.2 °F 68.0 °F 65% 29.96 in 10.0 mi WSW 9.2 mph - N/A   Clear
1:55 PM 80.6 °F 83.2 °F 68.0 °F 65% 29.96 in 10.0 mi WSW 12.7 mph - N/A   Clear
2:16 PM 80.6 °F 83.2 °F 68.0 °F 65% 29.97 in 10.0 mi West 13.8 mph - N/A   Scattered Clouds
2:35 PM 80.6 °F 83.2 °F 68.0 °F 65% 29.97 in 10.0 mi WSW 8.1 mph - N/A   Overcast
2:55 PM 78.8 °F - 68.0 °F 69% 29.97 in 10.0 mi West 5.8 mph - N/A   Overcast
3:16 PM 78.8 °F - 68.0 °F 69% 29.97 in 10.0 mi SW 8.1 mph - N/A   Overcast
3:35 PM 78.8 °F - 69.8 °F 74% 29.96 in 10.0 mi WSW 6.9 mph - N/A   Overcast
3:55 PM 78.8 °F - 69.8 °F 74% 29.95 in 10.0 mi WSW 4.6 mph - N/A   Overcast
4:16 PM 78.8 °F - 69.8 °F 74% 29.95 in 10.0 mi West 4.6 mph - N/A   Overcast
4:35 PM 78.8 °F - 69.8 °F 74% 29.94 in 10.0 mi West 5.8 mph - N/A Rain Rain
4:55 PM 73.4 °F - 69.8 °F 88% 29.95 in 3.0 mi NW 6.9 mph 17.3 mph 0.07 in Rain Heavy Rain
5:16 PM 73.4 °F - 71.6 °F 94% 29.95 in 10.0 mi West 4.6 mph - 0.01 in   Overcast
5:35 PM 73.4 °F - 71.6 °F 94% 29.95 in 10.0 mi West 4.6 mph - 0.01 in Rain Light Rain
5:55 PM 73.4 °F - 71.6 °F 94% 29.95 in 10.0 mi Calm Calm - 0.01 in   Overcast
6:15 PM 75.2 °F - 71.6 °F 89% 29.95 in 10.0 mi West 4.6 mph - N/A   Scattered Clouds
6:55 PM 77.0 °F - 71.6 °F 83% 29.93 in 10.0 mi Calm Calm - N/A   Scattered Clouds
7:15 PM 77.0 °F - 71.6 °F 83% 29.94 in 10.0 mi Calm Calm - N/A   Clear
7:35 PM 75.2 °F - 71.6 °F 89% 29.95 in 10.0 mi Calm Calm - N/A   Clear
7:55 PM 73.4 °F - 71.6 °F 94% 29.95 in 10.0 mi Calm Calm - N/A   Clear
8:16 PM 73.4 °F - 71.6 °F 94% 29.96 in 5.0 mi Calm Calm - N/A   Clear
8:35 PM 73.4 °F - 71.6 °F 94% 29.97 in 10.0 mi Calm Calm - N/A   Clear
8:55 PM 71.6 °F - 71.6 °F 100% 29.97 in 10.0 mi Calm Calm - N/A   Clear
9:16 PM 71.6 °F - 71.6 °F 100% 29.98 in 10.0 mi Calm Calm - N/A   Clear
9:35 PM 71.6 °F - 69.8 °F 94% 29.98 in 0.5 mi Calm Calm - N/A Fog Fog
9:55 PM 71.6 °F - 71.6 °F 100% 29.98 in 0.5 mi Calm Calm - N/A Fog Fog
10:16 PM 69.8 °F - 69.8 °F 100% 29.99 in 0.8 mi Calm Calm - N/A   Mostly Cloudy
10:35 PM 69.8 °F - 69.8 °F 100% 30.00 in 5.0 mi Calm Calm - N/A   Scattered Clouds
10:56 PM 69.8 °F - 69.8 °F 100% 30.00 in 2.5 mi Calm Calm - N/A   Clear
11:15 PM 69.8 °F - 69.8 °F 100% 30.01 in 0.8 mi Calm Calm - N/A   Mist
11:35 PM 69.8 °F - 69.8 °F 100% 30.01 in 10.0 mi Calm Calm - N/A   Clear
11:56 PM 68.0 °F - 68.0 °F 100% 30.02 in 0.5 mi Calm Calm - N/A Fog Fog